User: anonymous   Login
Location: NJAA Observatory
(40.6819°N, 74.8979°W)
Time: 22:01:27
(UTC-04:00)
Language:

CENTAUR R/B - Orbit

View from above orbital plane
View from above orbital plane
View from above satellite
View from above satellite

Ground track
Ground track

The orbit data is extracted from the following two-line orbital elements,

1 26906U 01040B   16268.01902437 0.00000000  00000-0  00000-0 0    00
2 26906  63.4555 295.5210 0330000 342.8772  17.1227 13.43993171    07
Epoch (UTC): 24 September 2016 00:27:23
Eccentricity: 0.0330000
inclination: 63.4555°
perigee height: 848 km
apogee height: 1341 km
right ascension of ascending node: 295.5210°
argument of perigee: 342.8772°
revolutions per day: 13.43993171
mean anomaly at epoch: 17.1227°
orbit number at epoch: 0

The dashed part of the orbit path shows where the satellite is in the earth's shadow,  

DLR